Theta_e
323 332 336 337 347 347 354 352 348 354 350 349 349 350 352 354 354 357 349 346 345 345 347 346 347 348 349 341 339 337 334 332 330 331 333 334 334 334 335 335 336 339 341 343 342 341 340 338 336
323 329 330 335 347 347 347 346 351 352 345 344 348 352 354 358 352 352 347 346 344 346 348 348 347 346 343 339 334 331 333 335 335 335 335 334 332 331 331 332 333 335 338 340 341 341 339 337 336
321 325 331 337 345 347 347 347 348 347 341 342 353 351 352 353 351 350 348 344 344 345 346 347 343 338 334 334 337 338 337 335 333 331 331 332 333 336 338 339 340 340 344 344 344 344 342 340 340
325 327 332 337 341 345 345 346 348 339 343 347 351 354 350 351 348 349 348 343 343 344 345 342 338 338 341 341 337 336 334 335 339 341 341 341 341 342 342 342 341 341 344 342 338 336 336 336 335
320 325 335 343 344 345 345 345 346 342 344 348 347 354 353 352 349 346 344 342 342 345 346 345 343 342 338 338 339 336 340 341 343 343 343 343 343 342 342 342 343 343 341 341 340 339 339 338 338
322 324 333 343 341 344 346 344 345 341 340 345 350 348 353 352 347 344 342 341 342 344 344 344 342 340 342 338 340 341 340 341 340 340 340 340 341 342 341 340 341 340 338 338 339 339 336 338 340
320 327 329 330 334 343 346 342 344 341 341 344 346 346 355 353 348 345 342 343 344 344 344 344 344 344 336 339 342 342 338 337 336 336 337 337 337 337 336 336 337 336 335 335 334 335 334 333 335
320 324 325 329 335 336 344 341 339 337 340 343 343 347 353 353 348 345 343 344 344 343 344 344 345 342 344 346 342 339 335 334 333 331 330 331 331 331 332 333 332 332 331 330 329 329 329 330 331
315 323 328 326 337 334 344 343 341 341 347 345 344 346 348 350 346 343 344 344 343 344 344 344 342 343 346 345 339 336 334 332 329 325 321 319 320 324 325 325 326 326 326 326 326 325 326 326 327
319 322 327 323 333 335 344 342 342 348 348 348 347 349 350 348 342 341 341 341 341 342 342 343 341 345 346 340 338 334 330 327 323 318 315 314 313 313 315 315 317 319 320 321 322 322 322 323 324
315 320 322 322 324 337 344 342 345 350 349 347 347 352 350 347 340 341 342 340 341 342 341 341 341 343 343 338 334 330 327 323 317 315 315 314 314 315 316 317 317 318 316 318 319 319 320 320 321
316 316 318 320 326 340 343 341 348 349 347 343 345 349 350 348 341 342 344 343 342 341 339 340 340 343 344 341 335 327 324 318 318 315 315 315 316 315 315 315 315 316 317 318 318 317 318 318 319
315 316 315 316 321 334 341 342 346 348 346 344 346 349 350 347 341 342 344 343 340 338 336 337 340 341 340 337 331 326 319 317 316 316 315 314 315 314 314 314 314 315 316 317 317 317 317 317 317
316 315 316 320 326 337 338 341 342 343 345 347 348 349 349 347 343 344 344 342 338 335 333 332 333 333 332 330 326 320 317 316 316 315 314 313 313 313 314 315 316 316 316 316 316 317 317 316 316
316 319 327 331 332 338 339 344 344 343 346 349 349 349 348 347 344 343 342 339 335 333 331 330 330 328 326 322 320 318 317 316 316 315 313 312 311 312 315 316 316 315 316 316 317 317 315 315 319
319 318 320 337 339 341 338 328 337 346 349 350 349 348 346 343 336 334 334 333 332 331 330 326 323 322 320 319 318 318 316 315 314 313 313 311 312 312 315 316 315 315 314 314 315 315 314 318 317
318 319 320 341 338 342 341 330 341 348 349 351 350 347 343 339 335 338 340 339 333 332 326 321 321 322 322 320 318 316 315 314 313 313 312 309 312 313 316 314 314 314 312 312 314 314 314 315 314
319 321 320 324 343 344 342 343 344 348 350 351 349 348 345 344 341 337 333 329 327 322 321 317 317 318 318 317 315 315 314 313 313 312 311 309 313 313 315 314 314 312 311 311 313 314 312 314 313
318 319 320 320 337 344 346 340 344 349 350 350 350 348 346 343 340 337 331 326 322 319 319 317 316 316 316 316 316 316 315 313 311 310 309 312 313 313 314 312 311 310 309 310 311 311 311 311 314
318 319 319 320 322 342 341 345 344 349 350 350 350 348 346 340 339 331 329 324 321 319 318 317 317 315 316 317 315 314 312 310 310 310 311 310 311 311 311 312 309 309 308 309 309 311 310 308 308
320 320 321 320 326 329 331 332 343 344 349 348 348 347 344 339 337 333 327 324 322 320 318 317 315 314 315 314 313 311 309 309 310 311 311 309 309 309 309 310 309 308 307 307 308 308 310 309 307
323 321 320 320 323 325 334 326 345 348 350 351 348 346 344 340 336 331 328 324 322 320 318 316 313 312 312 313 313 313 310 310 310 311 310 310 307 308 309 307 308 308 307 308 307 307 307 307 307
323 320 321 322 323 323 335 331 333 351 352 350 349 347 345 340 335 330 328 325 322 320 317 315 313 311 310 310 310 309 310 310 310 310 310 308 308 307 306 306 306 306 308 307 307 307 307 306 305
321 322 319 325 326 326 326 331 328 350 348 346 348 348 345 341 334 329 327 324 322 319 316 314 313 311 309 308 308 310 311 310 310 310 310 309 309 309 307 307 307 307 307 307 306 307 308 306 305
321 324 325 324 326 323 326 333 327 337 344 345 344 347 345 339 335 331 328 325 322 318 317 315 313 312 310 309 309 310 310 311 311 310 309 310 309 309 308 307 307 308 307 308 306 307 306 307 305
322 324 325 326 325 324 325 326 325 332 334 337 340 344 344 336 334 333 329 326 322 319 317 315 314 312 310 310 309 310 310 310 310 309 309 308 308 309 307 307 306 306 306 307 305 307 307 307 305
322 323 321 325 323 324 324 329 331 335 338 339 341 345 342 335 334 333 330 327 323 320 318 316 314 313 311 310 309 310 310 310 309 307 307 308 307 308 308 306 304 302 304 305 306 306 306 306 305
323 321 325 324 326 326 326 330 327 333 336 340 343 345 343 335 334 333 331 328 323 320 318 316 315 314 312 310 309 310 310 310 308 307 306 305 306 307 306 304 303 301 300 306 306 305 305 304 304
327 324 323 324 326 326 327 325 331 332 331 338 341 344 340 335 333 332 330 327 323 320 318 316 315 314 312 310 309 310 310 309 308 308 307 306 306 306 307 305 303 302 302 306 307 305 305 305 306
322 330 331 331 332 328 327 327 326 328 331 335 338 341 338 334 332 331 329 326 323 321 318 317 315 314 312 310 309 310 310 310 309 309 308 307 307 306 307 305 303 303 301 304 306 306 306 306 306
Wind_Speed
6 8 5 1 3 0 1 1 1 2 3 3 2 1 3 5 2 2 6 6 12 13 12 10 10 10 11 11 11 12 12 12 12 11 10 9 8 8 6 6 6 6 5 5 4 4 4 4 4
8 6 1 1 2 3 2 1 4 3 5 3 0 4 4 5 4 8 9 13 14 13 12 11 11 11 12 11 11 12 11 11 11 9 8 8 7 7 7 7 7 6 6 5 5 6 5 6 6
6 3 1 1 1 3 2 4 2 4 3 2 3 5 4 4 7 11 7 16 14 12 11 10 11 11 12 12 12 12 11 10 9 9 9 9 8 8 8 8 7 7 7 6 6 7 7 7 7
3 2 2 2 3 2 3 0 4 8 2 1 5 7 5 6 4 7 17 15 14 13 10 10 11 11 11 11 11 11 11 11 10 9 8 8 7 7 6 6 7 8 9 8 7 6 6 7 8
2 1 1 1 2 3 3 3 6 6 3 5 3 5 4 5 11 16 16 14 13 12 11 9 10 10 10 11 12 13 12 12 12 10 9 8 6 5 5 6 5 6 8 8 7 6 6 7 7
3 1 2 5 3 2 3 5 6 6 3 5 6 10 5 8 13 13 13 13 12 12 11 10 9 11 11 11 13 12 11 11 11 10 9 9 7 6 6 6 5 5 6 7 6 6 6 7 6
2 3 2 3 2 3 3 8 8 6 4 6 13 8 5 7 12 13 13 12 11 11 11 11 10 10 12 13 11 10 9 9 8 8 8 7 6 6 6 7 6 6 6 6 6 6 7 7 6
3 2 5 4 4 3 5 10 5 7 7 8 12 5 7 11 15 15 14 12 11 10 11 12 10 10 12 11 9 8 8 8 9 9 9 8 7 7 7 7 8 8 8 9 9 9 9 8 8
3 4 7 6 7 3 9 10 5 3 7 7 11 5 14 22 19 18 15 12 12 11 10 10 10 11 11 11 9 8 8 8 10 11 12 12 12 10 10 10 10 10 10 11 11 11 11 11 11
5 7 11 5 7 6 12 11 13 8 11 7 11 11 24 23 22 20 17 15 14 12 10 9 10 10 9 9 8 7 7 10 11 12 13 14 14 13 11 12 12 12 13 13 13 13 13 12 11
5 9 6 8 8 6 12 11 10 10 13 14 21 16 21 23 20 19 16 14 13 11 9 9 11 11 9 8 7 6 7 9 10 12 15 16 16 15 13 13 13 13 13 12 12 12 12 13 12
4 6 6 3 10 8 10 10 8 12 4 10 16 19 21 19 19 19 16 13 12 10 8 11 12 12 12 10 6 5 6 8 9 13 14 16 13 15 16 15 13 13 13 13 13 12 13 13 13
5 4 5 5 3 3 9 15 10 17 4 10 17 18 18 17 18 17 15 13 11 10 10 12 14 13 13 10 8 5 5 7 10 11 14 15 13 14 14 14 13 12 12 12 13 13 14 14 14
6 4 3 4 2 4 9 7 7 13 9 13 18 18 17 17 18 15 14 13 11 11 11 15 15 13 11 10 8 7 7 9 9 11 12 14 13 15 13 14 14 13 13 13 12 12 13 15 15
2 3 1 3 0 3 8 5 18 6 12 15 15 14 14 12 13 10 8 10 10 9 10 13 14 12 12 10 8 7 7 8 8 8 12 14 15 14 13 12 13 13 13 13 13 11 15 16 14
3 1 5 1 5 4 11 14 16 10 15 15 16 14 13 13 16 16 11 9 9 9 9 6 9 10 11 11 9 8 8 7 7 8 9 13 13 14 12 11 12 12 12 12 12 12 16 11 14
2 4 4 2 7 5 10 8 7 14 15 16 16 17 15 15 20 32 32 29 23 20 13 8 9 10 9 9 9 10 9 7 7 8 10 12 12 13 11 11 13 13 13 13 10 11 14 12 14
4 3 3 3 10 10 13 11 5 14 17 17 18 18 19 18 17 18 18 18 19 15 16 12 10 12 11 11 11 9 8 7 8 9 10 11 11 12 10 11 13 15 16 15 10 12 13 11 12
1 2 4 2 7 10 15 14 6 12 14 17 19 19 19 17 16 15 19 19 19 19 15 12 12 12 11 10 8 6 5 6 8 8 10 10 10 10 10 11 13 15 17 15 12 12 17 13 5
2 3 5 5 4 7 5 16 8 16 21 21 22 21 19 16 16 16 17 18 21 20 17 12 11 13 10 7 6 5 5 6 7 8 10 11 11 11 10 10 13 16 17 19 16 13 13 21 19
3 5 5 3 3 6 2 8 10 13 17 17 16 16 15 18 17 15 19 20 18 17 16 15 12 11 10 8 7 9 8 8 8 8 8 11 11 10 11 12 13 15 15 17 17 17 14 13 20
4 9 6 5 5 4 9 5 6 10 16 19 19 18 17 20 18 14 18 19 17 16 15 14 14 11 10 10 8 6 7 9 8 8 8 9 10 10 11 13 13 13 14 15 15 16 16 14 13
2 4 5 6 7 3 7 5 2 6 12 22 23 23 20 21 20 18 22 21 20 16 16 16 15 12 11 9 8 10 11 11 10 9 9 9 10 12 12 12 12 12 10 12 13 13 14 15 16
3 5 2 2 4 5 6 11 5 6 11 12 18 23 22 21 20 19 21 21 19 19 18 17 16 14 13 12 11 11 13 12 12 9 9 7 8 7 9 9 9 8 7 8 9 9 10 11 13
4 3 3 6 5 6 1 7 9 10 17 16 10 19 20 19 20 21 21 25 24 25 22 19 18 16 13 12 12 13 13 12 12 9 7 6 5 5 5 6 6 6 9 4 6 6 8 8 10
2 1 4 4 5 8 4 6 6 5 7 12 14 11 18 21 20 22 25 27 27 27 25 22 20 17 15 14 14 13 13 11 10 8 6 6 5 4 5 4 5 7 7 4 6 6 7 7 8
4 4 1 1 1 4 4 4 9 7 10 7 9 12 20 22 23 24 29 31 30 29 27 24 22 19 17 15 15 14 12 10 9 9 7 4 4 4 5 4 5 6 4 2 5 6 7 7 6
4 5 2 2 4 7 4 3 8 6 11 8 13 16 17 19 20 21 24 29 28 27 25 23 21 20 18 17 16 15 12 10 9 8 5 5 3 4 5 3 4 7 4 2 4 5 7 5 4
1 2 2 1 2 4 7 5 6 14 15 15 18 15 16 19 20 21 22 27 27 26 25 23 21 19 18 17 17 15 13 11 11 9 6 5 4 4 4 2 3 6 5 2 2 3 3 2 3
1 4 3 2 3 2 4 7 11 11 15 11 11 12 13 16 18 18 22 27 28 28 27 25 23 21 19 18 18 17 14 13 11 8 6 5 4 4 3 2 1 4 5 2 1 0 2 4 5
Wind_Direction
139 127 142 197 219 231 213 202 311 130 123 94 87 139 112 47 35 76 120 160 134 132 133 132 136 134 125 124 117 111 103 99 93 88 84 82 79 71 62 53 50 44 37 20 10 359 342 330 326
138 131 113 126 242 189 205 209 229 134 56 122 233 112 90 75 68 124 128 138 138 136 137 134 137 132 125 121 113 105 99 91 87 83 78 72 66 61 50 42 37 30 14 0 349 335 321 315 310
141 112 266 81 124 225 255 186 200 105 114 191 125 61 68 77 94 138 130 139 133 130 130 131 134 126 119 114 108 100 92 86 80 75 68 63 60 57 49 41 31 21 6 349 337 326 319 312 304
140 137 108 263 217 221 253 249 122 133 119 65 104 78 83 25 114 130 139 138 132 127 124 129 125 119 116 109 100 95 87 79 70 65 61 56 50 42 40 33 28 18 10 5 359 346 337 329 312
81 155 141 243 230 275 250 256 170 143 105 114 85 113 84 66 105 125 132 134 132 131 127 124 129 122 115 105 101 94 86 74 70 69 59 48 41 26 20 12 6 359 354 358 352 344 336 327 324
139 234 189 207 243 259 263 204 173 172 130 135 126 122 97 122 125 127 130 133 136 132 126 122 123 115 109 107 103 94 82 77 68 62 53 42 36 25 19 20 14 2 6 12 14 1 349 344 324
213 193 181 190 259 277 212 174 202 181 174 174 146 125 105 139 135 132 132 137 135 133 128 126 124 119 117 114 112 98 83 70 63 47 36 19 10 13 7 5 2 348 348 345 346 341 338 341 338
154 162 158 203 208 253 165 177 203 196 180 133 162 153 161 157 144 137 139 141 137 136 135 132 132 126 121 114 115 101 83 64 49 38 29 23 16 14 3 355 354 338 342 337 335 329 323 320 319
160 188 208 212 181 212 160 191 176 154 157 169 168 133 141 148 144 141 141 146 145 142 139 136 138 130 128 118 109 95 72 53 44 37 32 31 32 23 21 3 355 345 341 335 329 325 322 318 316
201 207 210 211 183 186 178 202 168 173 167 168 154 110 140 150 155 156 162 163 160 153 150 149 142 139 130 119 116 97 79 57 47 42 38 36 31 27 18 7 358 350 344 338 333 329 326 329 322
156 215 210 229 190 147 177 201 177 168 191 185 179 155 158 159 166 165 169 171 165 156 153 155 153 152 142 135 114 89 64 56 50 44 40 36 33 26 20 13 6 2 353 349 342 338 334 329 322
191 234 217 268 165 152 174 170 201 196 132 192 171 161 166 166 171 171 168 165 158 151 149 161 161 164 166 156 130 95 71 66 62 47 38 34 30 22 16 10 1 358 354 352 347 339 334 326 318
213 218 228 270 134 184 160 191 194 214 185 159 158 161 172 173 174 174 168 162 150 140 131 144 156 160 153 151 147 128 100 78 64 53 41 32 29 20 11 6 3 2 359 355 349 345 342 336 326
185 213 330 344 167 158 186 187 202 222 175 156 162 169 174 177 174 164 165 155 150 138 138 141 150 155 158 159 155 139 108 83 68 54 42 33 27 19 14 16 17 15 12 2 355 352 352 344 332
120 202 300 338 200 166 165 166 219 186 170 156 167 166 163 162 163 168 159 149 148 151 152 160 157 164 162 150 147 127 98 80 67 57 36 31 26 26 30 27 21 15 9 8 9 11 357 354 1
175 196 218 36 179 169 202 233 211 167 160 164 165 161 149 135 113 105 116 136 151 159 168 169 158 151 148 148 149 125 106 90 75 53 43 34 34 39 34 29 19 11 13 13 15 8 2 27 25
59 208 195 181 194 166 210 236 165 163 172 170 173 172 155 155 157 170 187 195 173 173 183 181 157 149 157 148 138 122 115 96 72 50 40 43 43 42 41 31 24 21 19 15 16 15 12 44 44
181 177 177 159 191 193 204 254 153 180 181 182 182 184 185 187 186 189 147 154 165 166 165 163 144 147 151 143 134 122 109 79 56 46 48 55 46 46 44 39 31 30 24 19 27 32 36 59 60
241 248 283 283 177 183 213 242 210 194 197 192 194 195 197 196 179 171 162 157 162 162 158 156 164 160 157 151 153 130 95 67 55 62 70 63 56 50 46 45 43 38 34 31 42 40 38 44 44
176 290 259 280 182 224 230 245 212 202 212 205 201 199 194 180 177 164 165 162 168 167 162 166 171 170 178 179 154 123 110 85 94 86 82 74 63 59 52 65 58 53 47 46 44 39 47 48 46
221 243 237 250 121 211 208 247 225 228 224 220 222 217 200 193 185 176 171 174 172 165 165 162 173 177 182 166 145 129 112 109 108 98 91 78 69 63 64 76 67 60 54 51 48 44 45 55 51
268 219 230 209 205 261 204 279 224 216 219 223 219 212 202 197 190 172 174 176 177 174 162 159 164 166 158 158 161 160 145 134 124 115 99 81 70 74 77 72 72 68 60 54 49 49 50 49 52
250 167 232 234 226 206 193 247 168 191 227 231 222 215 208 198 186 177 181 179 178 173 170 162 161 161 163 166 156 141 135 131 131 122 107 95 83 85 82 77 74 73 62 56 55 53 57 59 55
282 246 125 140 171 228 220 216 217 200 220 240 221 217 207 196 180 174 179 176 175 176 173 167 160 156 155 150 146 145 141 143 140 130 118 104 96 92 90 78 67 57 48 50 58 61 62 62 62
183 215 252 230 212 264 80 214 252 227 241 250 239 213 201 185 176 174 180 178 180 180 179 173 167 158 156 149 149 147 147 146 139 135 125 114 116 106 93 79 63 40 23 74 61 64 59 62 69
146 299 286 279 270 294 152 229 249 264 283 280 254 220 185 182 182 181 181 181 182 182 182 176 169 161 160 154 154 155 154 149 145 141 129 116 109 96 134 90 71 39 41 77 75 56 62 84 77
149 232 103 213 71 263 286 266 273 239 257 250 224 195 185 186 187 184 179 184 186 184 183 178 172 167 164 162 164 165 162 156 155 146 143 132 112 100 120 108 51 24 9 83 87 71 67 83 72
239 137 219 201 250 256 221 268 279 263 250 212 212 206 193 188 187 184 186 185 184 183 180 178 176 171 168 168 173 173 168 161 164 165 162 159 150 145 131 95 41 30 26 76 91 77 81 78 67
286 177 91 148 264 286 283 253 248 254 247 211 218 207 191 187 185 187 184 183 181 178 177 177 175 173 171 174 175 174 172 162 158 157 150 149 160 163 161 94 46 34 33 97 102 101 71 45 360
264 71 65 251 185 246 275 265 270 277 274 266 234 198 195 191 184 182 179 179 179 178 177 177 179 178 176 175 176 178 175 175 178 179 187 193 200 209 199 191 79 38 39 102 87 139 319 323 320